Regional Weather Roundup
Issued by NWS

Home | Current Version | Previous Version | Text Only | Print | Product List | Glossary Off
Versions: 1 2 3 4 5 6 7 8 9 10 11 12 13 14 15 16 17 18 19 20 21 22 23 24 25 26 27 28 29 30 31 32 33 34 35 36 37 38 39 40 41 42 43 44 45 46 47 48 49 50

000
ASUS43 KLSX 251707
RWRMO

WEATHER SUMMARY FOR MISSOURI
NATIONAL WEATHER SERVICE SPRINGFIELD MO
1200 PM CDT SAT MAR 25 2017

NOTE: "FAIR" INDICATES FEW OR NO CLOUDS BELOW 12,000 FEET WITH NO
       SIGNIFICANT WEATHER AND/OR OBSTRUCTIONS TO VISIBILITY.
       CURRENT SKY AND/OR WEATHER CONDITIONS ARE NOT AVAILABLE FOR
       CHILLICOTHE AND FARMINGTON.

MOZ001>031-035>038-043-044-053-054-251800-
...NORTHERN AND WESTERN MISSOURI...

CITY           SKY/WX    TMP DP  RH WIND       PRES   REMARKS
KANSAS CTY INT LGT RAIN  52  51  97 NE16      29.85R FOG
KANSAS C DTWN  RAIN      56  54  93 N8        29.82F
LEE`S SUMMIT   CLOUDY    59  55  87 N10       29.82S
ST JOSEPH      CLOUDY    48  47  96 N13       29.89S
CHILLICOTHE      N/A     53  50  89 N9        29.86F
KIRKSVILLE     CLOUDY    55  54  96 N9        29.85F FOG

$$
MOZ066>068-077>081-088>096-101>105-251800-
...SOUTHWEST MISSOURI...

CITY           SKY/WX    TMP DP  RH WIND       PRES   REMARKS
SPRINGFIELD    CLOUDY    59  50  72 CALM      29.79F
JOPLIN         CLOUDY    50  48  93 W9        29.86R
BRANSON        PTSUNNY   57  54  88 W9        29.82S

$$
MOZ032>034-039>042-045>050-055>058-069>072-251800-
...CENTRAL MISSOURI...

CITY           SKY/WX    TMP DP  RH WIND       PRES   REMARKS
COLUMBIA       CLOUDY    57  54  89 SE6       29.85S
JEFFERSON CITY LGT RAIN  58  54  86 E5        29.84S FOG
ROLLA          RAIN      57  56  96 E8        29.82F FOG
SEDALIA        CLOUDY    60  52  74 SW3       29.83F
WHITEMAN AFB   CLOUDY    58  58 100 CALM      29.81S
WARRENSBURG    CLOUDY    57  52  82 E8        29.83R
OSAGE BEACH    LGT RAIN N/A N/A N/A E3        29.83F

$$
MOZ051-052-059>065-251800-
...EAST CENTRAL MISSOURI...

CITY           SKY/WX    TMP DP  RH WIND       PRES   REMARKS
ST LOUIS INTL  CLOUDY    62  54  74 SE13      29.89F
SPIRIT OF STL  CLOUDY    60  56  86 E5        29.87F
ST CHARLES     CLOUDY    60  56  86 SE13      29.88F

$$
MOZ072>076-082>087-097>100-106>115-251800-
...SOUTH CENTRAL AND SOUTHEAST MISSOURI...

CITY           SKY/WX    TMP DP  RH WIND       PRES   REMARKS
CAPE GIRARDEAU LGT RAIN  61  57  87 S16       29.92S
FARMINGTON     CLOUDY    59  55  87 S14G20    29.88S
POPLAR BLUFF   CLOUDY    60  59  96 S13G23    29.88F
WEST PLAINS    CLOUDY    61  56  83 S12G20    29.82F

$$



USA.gov is the U.S. government's official web portal to all federal, state and local government web resources and services.